Location: ????????
(48.4751°N, 37.6926°E)
Time: 11:56:41
(UTC+00:00)

Cosmos 1674 - Pass Details

Date: 20 January 2021
Orbit: 492 x 518 km, 82.5° (Epoch: 26 February)

Event Time Altitude Azimuth Distance (km) Brightness Sun altitude
Rises 14:35:56 0° 196° (SSW) 2,626 6.9 -4.8°
Reaches altitude 10° 14:38:04 10° 199° (SSW) 1,745 6.1 -5.1°
Maximum altitude 14:41:52 63° 281° (WNW) 585 3.3 -5.7°
Drops below altitude 10° 14:45:42 10° 4° (N) 1,762 5.1 -6.2°
Sets 14:47:52 0° 7° (N) 2,654 6.0 -6.6°
